Satellite: CO-58
Catalog number: 28895
Epoch time:      07241.26890636
Element set:    0813
Inclination:      098.1248 deg
RA of node:       136.6707 deg
Eccentricity:    0.0016853
Arg of perigee:   244.4619 deg
Mean anomaly:     115.4988 deg
Mean motion:   14.59579742 rev/day
Decay rate:       2.76e-06 rev/day^2
Epoch rev:           09775
Checksum:              368

Satellite: NCUBE2
Catalog number: 28897
Epoch time:      07241.67827709
Element set:     340
Inclination:      098.1200 deg
RA of node:       137.0212 deg
Eccentricity:    0.0016209
Arg of perigee:   243.5551 deg
Mean anomaly:     116.3999 deg
Mean motion:   14.59742612 rev/day
Decay rate:        5.9e-07 rev/day^2
Epoch rev:            9009
Checksum:              303

Satellite: NMARS
Catalog number: 29662
Epoch time:      07126.39603970
Element set:     263
Inclination:      051.6121 deg
RA of node:       302.3682 deg
Eccentricity:    0.0004459
Arg of perigee:   252.1654 deg
Mean anomaly:     110.7411 deg
Mean motion:   16.47981436 rev/day
Decay rate:   7.031946e-02 rev/day^2
Epoch rev:            2165
Checksum:              289

Satellite: FCAL
Catalog number: 29667
Epoch time:      07241.95166224
Element set:    0306
Inclination:      051.6318 deg
RA of node:       066.7339 deg
Eccentricity:    0.0012104
Arg of perigee:   272.5079 deg
Mean anomaly:     087.4548 deg
Mean motion:   15.90672055 rev/day
Decay rate:     1.8176e-04 rev/day^2
Epoch rev:           03973
Checksum:              314

Satellite: FALCON
Catalog number: 30776
Epoch time:      07241.86847467
Element set:    0132
Inclination:      035.4331 deg
RA of node:       125.9846 deg
Eccentricity:    0.0001486
Arg of perigee:   339.4114 deg
Mean anomaly:     020.6545 deg
Mean motion:   15.02754657 rev/day
Decay rate:       1.71e-06 rev/day^2
Epoch rev:           02614
Checksum:              286

Satellite: MAST
Catalog number: 31126
Epoch time:      07241.64915856
Element set:    0120
Inclination:      098.0774 deg
RA of node:       312.1834 deg
Eccentricity:    0.0095141
Arg of perigee:   157.5783 deg
Mean anomaly:     202.9614 deg
Mean motion:   14.53361232 rev/day
Decay rate:       3.43e-06 rev/day^2
Epoch rev:           01952
Checksum:              277

Satellite: CAPE1
Catalog number: 31130
Epoch time:      07242.88917160
Element set:     105
Inclination:      098.0763 deg
RA of node:       313.0620 deg
Eccentricity:    0.0103551
Arg of perigee:   154.6361 deg
Mean anomaly:     205.9970 deg
Mean motion:   14.51878568 rev/day
Decay rate:      -3.53e-06 rev/day^2
Epoch rev:            1945
Checksum:              284

/EX






More information about the Keps mailing list